Tracking 19245 objects as of 14-Aug-2018
HD Live streaming from Space Station
objects crossing your sky now

MOLNIYA 1-52

Track MOLNIYA 1-52 now!
MOLNIYA 1-52 is classified as:


NORAD ID: 13012
Int'l Code: 1981-123A
Perigee: 1,780.1 km
Apogee: 38,623.8 km
Inclination: 64.1 °
Period: 718.5 minutes
Semi major axis: 26572 km
RCS: 16.6943 m2 (large)
Launch date: December 23, 1981
Source: Commonwealth of Independent States (former USSR) (CIS)
Launch site: TYURATAM MISSILE AND SPACE COMPLEX (TTMTR)
aabbcc
Your satellite tracking list
Your tracking list is empty




NASA's NSSDC Master Catalog

Two Line Element Set (TLE):
1 13012U 81123A   18224.13158963 -.00000844 +00000-0 -49955-1 0  9996
2 13012 064.0939 113.2910 6932565 250.5842 347.3020 02.00421372268375
Source of the keplerian elements: AFSPC